Vertical_Velocity
-1 -0 -0 -1 -2 -2 -3 -1 -2 -1 -0 -1 -2 -2 -3 -2 -1 -2 -0 -0 -2 0 -1 -1 -1 1 0 2 0 -1 -4 5 -3 7 -7 2 -1 2 5 -5 2 5 -2 2 -0
-0 -1 -1 -2 -2 -1 -1 -2 -1 -2 -1 -1 -2 -3 -1 -3 -1 -1 -1 -1 -1 -1 -0 -1 -0 -1 -3 0 2 -2 2 -4 1 1 -1 2 1 3 1 -1 3 2 -0 2 -1
-2 -1 -1 -1 -2 -1 -2 -4 -2 -1 -0 -1 -1 -2 -2 -2 -2 -4 -2 -1 0 -1 1 -1 -1 -0 -1 -1 0 3 -1 4 4 2 2 0 1 2 1 1 -0 -2 5 -2 3
-1 -2 -0 -0 -1 -0 -1 -0 -1 -1 -1 -1 -2 -1 -2 -1 -5 2 -0 -0 -2 -3 -1 1 -0 0 0 -0 0 -3 5 1 0 2 -1 -2 -4 0 0 -9 2 -8 -3 -0 5
-1 -1 0 -1 -2 -2 -1 -0 0 0 -1 -1 -3 -2 -2 0 -4 -4 -2 -1 -1 -2 -2 -1 0 -0 1 0 -1 -0 0 -4 0 -2 -2 -1 -1 -2 9 -4 3 -1 4 1 -9
-2 -3 -0 0 -1 -1 -1 -1 -4 -1 -1 -1 -3 -2 -2 -2 -4 -2 -4 -3 -1 -1 -2 -1 -0 -3 -1 -2 0 6 -0 -1 1 2 3 -1 -0 -0 -1 0 -3 6 -6 -3 0
-2 -1 -2 -2 -2 -2 -2 1 -2 -1 -1 -1 -4 -4 0 -4 -2 -4 -1 -3 -2 -4 1 -1 -2 -2 4 -0 3 -2 1 1 1 2 -4 -4 0 5 -3 3 1 -6 -3 3 1
-1 -3 -1 0 1 0 -2 -1 0 1 -0 0 -2 -2 3 -1 -1 -4 -3 -1 -0 -2 -3 -1 -0 -1 -2 0 -0 -2 4 1 7 0 0 -6 7 2 1 -1 -2 -2 -3 -2 2
-1 -1 -2 -2 -2 -1 -4 -1 -1 -1 0 1 -0 -6 -1 -0 -4 -1 -0 0 1 0 -2 -2 -3 -1 1 -1 -1 1 2 1 -5 -2 1 -7 3 -0 2 0 -6 -1 1 1 0
-0 -1 -2 -1 -1 -0 -1 -6 -2 -4 0 -0 1 -4 10 0 -2 -1 1 -1 -1 2 -1 -5 -4 -3 1 1 1 -3 5 1 -0 13 -3 -4 -1 1 2 -5 -5 3 -0 -1 2
-1 -1 -2 -4 -2 -3 3 -2 -3 -12 8 1 -4 0 -4 -1 -1 -2 -2 -0 3 -0 -2 -1 -3 0 -1 3 0 0 0 -2 -3 3 1 -2 -1 -1 -3 -2 1 -0 -2 1 -3
-4 -4 -2 -5 -3 -2 -3 -5 -0 -5 -6 3 -5 -2 -2 -2 -1 -1 -3 -0 -0 -5 -3 1 2 1 -1 2 1 -0 0 -3 -1 1 3 -0 -1 -5 1 1 2 -3 2 1 6
-0 -0 -4 -2 -1 -4 -1 -3 -2 -1 -13 -4 3 1 -1 -1 2 0 0 -0 -1 -5 -3 -0 -2 -0 -1 1 1 -0 1 2 6 2 -1 0 -4 2 2 1 -1 -2 2 -7 -6
-1 -1 -2 -1 -0 -2 2 -2 -1 6 -16 -2 1 3 2 -1 -1 -0 1 -2 -3 -3 -4 -1 -1 -1 -1 1 -1 -1 2 -0 -2 2 0 -3 -3 3 0 2 -2 -1 -6 -8 -6
-3 -2 -3 -4 -3 -4 0 -0 0 9 -15 -4 -1 4 3 2 1 -2 -3 -1 -3 1 -6 2 -1 -1 -1 1 -1 0 -1 2 6 3 -4 -0 -3 8 3 1 -5 1 -4 -4 -6
-4 -1 -1 -3 -7 -2 -0 -2 1 2 -9 -2 1 4 7 6 3 3 -1 -3 -4 -0 -4 -1 -0 -0 -0 2 -1 0 4 4 5 -4 -1 0 -0 4 1 1 3 -7 -9 -2 0
-3 -2 1 -2 -6 -3 -0 -1 -4 1 3 9 10 2 13 5 1 2 -0 1 -4 -3 -3 1 -1 -0 -0 1 0 2 1 2 -0 -1 -1 1 -0 0 -1 -4 -3 3 0 -2 -1
-2 -2 -4 1 -12 3 -2 -4 -4 4 5 -3 -2 7 -4 1 4 4 0 0 -3 -1 -1 -3 1 -1 -1 1 1 4 2 3 -3 -1 -1 -1 -1 0 0 -1 1 0 -3 1 -3
-2 2 -10 3 -7 2 -5 -1 0 5 1 -3 -2 -9 3 -5 -6 -4 1 -4 -1 1 -0 -4 -0 0 0 1 3 -2 2 2 -4 -1 0 1 -1 1 -0 -2 -3 -2 -1 -2 -4
-3 -0 -3 -7 -5 4 -6 -3 -9 3 1 -0 1 -0 -5 -2 -2 -5 3 1 -1 0 -1 -2 -1 -1 1 1 -1 2 3 -1 -1 0 -0 1 -1 -2 -2 -2 -2 -2 -4 -3 -3
-1 -3 -4 -2 -3 -3 -4 -3 2 5 -0 -1 1 -5 -1 4 3 -2 1 3 3 0 0 -1 -0 -0 -0 1 1 3 2 0 -1 -0 -1 -1 -1 -1 -1 -1 1 -2 -5 -1 1
0 -3 2 -0 -1 -6 -3 -1 2 3 -1 -1 1 -1 -2 2 -1 -2 -3 9 2 1 0 1 -1 -1 -0 -0 2 3 3 -1 -0 1 -1 -2 1 0 -2 -3 0 -1 -4 -2 -0
-1 -0 0 -2 -7 -4 -2 -1 1 1 -3 1 1 -1 1 -0 -2 0 6 5 2 -0 0 5 0 -1 0 1 0 0 2 -1 0 -0 -1 -2 -1 -1 1 -2 -1 -3 -2 -2 2
-2 -2 -0 -1 -1 -3 -1 1 -3 -1 0 -0 1 1 -1 2 2 3 6 3 2 2 1 1 -2 -0 0 1 1 2 2 -1 -1 -1 1 -1 -0 -1 0 0 -2 -2 -3 0 -0
3 -3 -2 -2 3 1 -2 1 -1 -1 1 -0 5 1 -2 1 -2 -0 1 2 5 1 1 -0 -1 -0 0 3 -0 2 1 -1 -1 -0 -0 -1 -0 -3 1 -1 -1 -3 -3 -4 -1
2 -3 -3 -2 7 -1 -2 0 -0 -3 1 0 0 2 1 -0 0 2 2 0 3 3 0 0 0 0 0 2 0 2 0 -1 0 0 -2 -1 -0 -2 -0 0 -1 -1 -0 -3 -2
3 -1 -5 -3 7 -1 1 -1 1 -2 2 -2 -0 -0 2 2 2 3 1 3 3 2 1 -0 -1 -0 1 2 0 0 -1 -0 0 -1 -1 -1 0 -0 -3 1 -1 -2 0 -1 -5
Height
5803 5801 5798 5795 5793 5790 5788 5785 5782 5779 5775 5772 5769 5766 5763 5759 5756 5754 5751 5748 5745 5741 5739 5738 5735 5733 5731 5729 5727 5725 5724 5725 5722 5724 5720 5722 5721 5722 5721 5720 5720 5720 5719 5720 5720
5797 5795 5793 5791 5788 5785 5782 5778 5776 5772 5769 5766 5763 5759 5756 5753 5750 5747 5744 5740 5737 5734 5731 5729 5727 5725 5722 5720 5718 5716 5715 5713 5715 5713 5712 5712 5710 5712 5711 5711 5711 5710 5710 5709 5709
5791 5789 5786 5784 5781 5779 5776 5773 5769 5766 5762 5759 5756 5752 5748 5745 5742 5739 5735 5732 5729 5725 5722 5719 5717 5715 5712 5710 5708 5707 5706 5705 5704 5703 5702 5702 5701 5701 5701 5701 5701 5700 5699 5698 5697
5784 5782 5779 5776 5774 5771 5768 5765 5762 5759 5756 5752 5749 5744 5741 5737 5735 5729 5726 5723 5720 5718 5714 5710 5708 5705 5702 5699 5698 5697 5696 5695 5695 5694 5693 5692 5692 5691 5690 5687 5687 5688 5688 5688 5686
5776 5773 5771 5769 5766 5763 5760 5757 5754 5751 5748 5745 5741 5737 5733 5730 5727 5722 5718 5715 5712 5709 5705 5701 5698 5694 5691 5689 5687 5686 5686 5685 5685 5683 5682 5681 5680 5680 5678 5676 5678 5678 5678 5676 5676
5768 5765 5763 5760 5758 5754 5751 5749 5746 5744 5741 5737 5733 5729 5725 5722 5718 5714 5711 5707 5704 5701 5697 5693 5689 5685 5681 5679 5676 5677 5676 5674 5674 5673 5672 5671 5669 5668 5668 5669 5668 5668 5666 5667 5665
5759 5756 5753 5752 5750 5746 5742 5739 5737 5734 5731 5727 5724 5720 5717 5714 5710 5707 5704 5700 5696 5692 5688 5684 5680 5676 5672 5669 5668 5667 5666 5665 5665 5663 5661 5660 5659 5659 5658 5660 5659 5658 5658 5658 5655
5750 5748 5745 5742 5740 5737 5733 5731 5728 5725 5721 5717 5713 5709 5707 5703 5701 5698 5695 5691 5687 5684 5680 5676 5671 5667 5663 5661 5658 5658 5657 5656 5656 5653 5653 5650 5651 5651 5650 5650 5650 5650 5649 5648 5645
5740 5737 5735 5732 5729 5726 5723 5720 5718 5715 5712 5709 5706 5701 5698 5695 5692 5689 5686 5683 5679 5676 5672 5668 5663 5659 5655 5652 5650 5649 5649 5648 5646 5645 5644 5641 5642 5641 5643 5643 5642 5642 5640 5638 5634
5731 5728 5725 5722 5719 5716 5713 5709 5707 5705 5701 5699 5696 5693 5689 5686 5683 5679 5677 5674 5671 5668 5664 5660 5655 5651 5647 5643 5642 5640 5640 5639 5638 5640 5635 5634 5633 5635 5637 5636 5635 5634 5631 5628 5623
5722 5720 5716 5712 5709 5704 5702 5698 5697 5694 5693 5689 5684 5682 5677 5676 5674 5672 5670 5667 5665 5662 5658 5653 5650 5645 5640 5636 5634 5632 5632 5632 5629 5629 5628 5626 5628 5629 5630 5630 5629 5627 5622 5618 5611
5713 5709 5706 5702 5699 5694 5690 5686 5684 5681 5680 5680 5675 5671 5670 5668 5667 5666 5665 5664 5660 5656 5652 5649 5644 5639 5633 5628 5626 5625 5624 5623 5622 5621 5621 5622 5624 5624 5625 5624 5623 5618 5614 5608 5599
5701 5698 5693 5690 5686 5682 5680 5678 5675 5672 5668 5669 5666 5663 5662 5662 5661 5660 5659 5657 5654 5651 5647 5642 5638 5632 5627 5622 5619 5618 5617 5616 5617 5616 5617 5618 5620 5621 5621 5619 5615 5610 5602 5593 5585
5691 5688 5684 5681 5678 5673 5671 5669 5665 5662 5657 5660 5659 5656 5655 5655 5655 5654 5652 5652 5649 5646 5641 5637 5632 5627 5622 5618 5615 5612 5612 5612 5611 5613 5615 5616 5617 5617 5615 5613 5608 5601 5591 5583 5572
5682 5678 5674 5670 5669 5667 5665 5662 5658 5655 5650 5651 5650 5648 5647 5649 5648 5648 5646 5645 5643 5641 5638 5634 5628 5624 5619 5615 5612 5610 5609 5610 5612 5612 5612 5613 5613 5613 5611 5608 5600 5592 5583 5571 5561
5672 5669 5665 5663 5660 5659 5657 5655 5653 5650 5645 5644 5643 5643 5642 5642 5642 5642 5641 5640 5638 5635 5632 5628 5624 5621 5616 5612 5610 5609 5609 5609 5609 5609 5611 5610 5610 5609 5606 5601 5594 5585 5574 5563 5555
5662 5660 5658 5654 5654 5651 5649 5646 5646 5643 5642 5639 5638 5636 5637 5636 5637 5637 5636 5634 5632 5630 5627 5624 5621 5617 5612 5610 5608 5607 5606 5607 5607 5609 5609 5608 5607 5603 5600 5594 5587 5578 5567 5557 5551
5654 5652 5650 5647 5645 5643 5640 5639 5637 5636 5633 5632 5632 5632 5630 5629 5631 5631 5630 5629 5626 5624 5622 5619 5618 5613 5608 5607 5605 5605 5605 5605 5605 5607 5606 5605 5603 5600 5595 5590 5583 5572 5561 5555 5549
5646 5645 5643 5639 5638 5635 5633 5632 5630 5628 5625 5622 5624 5625 5625 5623 5625 5625 5624 5624 5622 5621 5619 5615 5613 5609 5605 5603 5603 5600 5602 5603 5603 5604 5604 5603 5601 5597 5591 5585 5577 5567 5558 5553 5549
5639 5637 5635 5633 5630 5628 5627 5625 5621 5619 5617 5616 5617 5618 5619 5620 5619 5619 5619 5618 5618 5616 5614 5612 5608 5605 5602 5600 5599 5599 5600 5601 5602 5602 5601 5600 5597 5593 5589 5582 5573 5563 5557 5553 5548
5632 5631 5629 5626 5623 5622 5620 5617 5614 5612 5610 5611 5610 5611 5612 5612 5612 5613 5615 5614 5612 5612 5610 5608 5605 5603 5600 5598 5596 5598 5598 5599 5600 5600 5599 5598 5596 5591 5586 5579 5570 5560 5556 5553 5549
5625 5625 5623 5620 5619 5615 5613 5610 5608 5606 5604 5604 5604 5604 5605 5607 5606 5606 5608 5608 5607 5608 5606 5605 5601 5598 5597 5595 5595 5596 5596 5597 5598 5599 5597 5596 5595 5590 5584 5576 5567 5559 5556 5553 5551
5617 5617 5616 5613 5611 5609 5607 5604 5602 5600 5597 5597 5597 5598 5600 5600 5601 5602 5603 5604 5603 5603 5602 5601 5599 5596 5594 5594 5593 5593 5595 5596 5597 5597 5596 5594 5592 5588 5583 5574 5565 5559 5556 5554 5553
5608 5608 5608 5607 5605 5603 5601 5599 5596 5593 5592 5591 5592 5593 5594 5595 5596 5597 5598 5599 5599 5599 5598 5597 5595 5594 5592 5591 5591 5593 5594 5595 5596 5596 5595 5593 5591 5587 5581 5573 5564 5561 5558 5555 5554
5599 5600 5600 5600 5599 5597 5596 5594 5591 5588 5587 5587 5589 5588 5589 5591 5591 5592 5593 5595 5595 5595 5595 5594 5593 5591 5590 5589 5589 5591 5593 5595 5595 5595 5595 5593 5590 5586 5580 5573 5565 5562 5561 5559 5557
5590 5591 5592 5594 5593 5591 5589 5588 5586 5583 5582 5582 5583 5584 5584 5586 5587 5588 5589 5591 5592 5592 5591 5591 5590 5589 5588 5587 5588 5590 5593 5594 5595 5595 5594 5592 5590 5585 5580 5573 5565 5564 5564 5562 5561
5580 5582 5583 5586 5586 5585 5584 5582 5580 5579 5577 5576 5578 5580 5581 5581 5582 5583 5585 5587 5588 5589 5588 5588 5587 5587 5586 5586 5587 5590 5592 5593 5594 5595 5595 5593 5590 5586 5581 5574 5566 5565 5566 5566 5564